TimePDT,TemperatureF,Dew PointF,Humidity,Sea Level PressureIn,VisibilityMPH,Wind Direction,Wind SpeedMPH,Gust SpeedMPH,PrecipitationIn,Events,Conditions,WindDirDegrees,DateUTC
12:53 AM,57.9,43.0,58,30.06,10.0,Calm,Calm,-,N/A,,Clear,0,2013-05-03 07:53:00
1:53 AM,57.0,39.9,53,30.05,10.0,Calm,Calm,-,N/A,,Clear,0,2013-05-03 08:53:00
2:53 AM,54.0,43.0,66,30.05,10.0,Calm,Calm,-,N/A,,Clear,0,2013-05-03 09:53:00
3:53 AM,52.0,43.0,71,30.04,10.0,Calm,Calm,-,N/A,,Clear,0,2013-05-03 10:53:00
4:53 AM,54.0,41.0,62,30.04,10.0,NNW,4.6,-,N/A,,Clear,340,2013-05-03 11:53:00
5:53 AM,52.0,39.9,63,30.04,10.0,North,4.6,-,N/A,,Clear,360,2013-05-03 12:53:00
6:53 AM,55.0,41.0,59,30.04,9.0,NNW,5.8,-,N/A,,Clear,330,2013-05-03 13:53:00
7:53 AM,62.1,44.1,52,30.03,10.0,Calm,Calm,-,N/A,,Clear,0,2013-05-03 14:53:00
8:53 AM,72.0,39.9,31,30.01,10.0,North,6.9,-,N/A,,Clear,350,2013-05-03 15:53:00
9:53 AM,80.1,35.1,20,29.99,10.0,North,9.2,19.6,N/A,,Clear,360,2013-05-03 16:53:00
10:53 AM,82.9,32.0,16,29.98,10.0,North,12.7,24.2,N/A,,Clear,360,2013-05-03 17:53:00
11:53 AM,86.0,34.0,16,29.96,10.0,NW,11.5,17.3,N/A,,Clear,320,2013-05-03 18:53:00
12:53 PM,90.0,25.0,10,29.93,10.0,North,18.4,25.3,N/A,,Clear,10,2013-05-03 19:53:00
1:53 PM,91.9,26.1,9,29.90,10.0,North,18.4,23.0,N/A,,Clear,10,2013-05-03 20:53:00
2:53 PM,93.0,30.0,11,29.88,10.0,NW,6.9,25.3,N/A,,Clear,320,2013-05-03 21:53:00
3:53 PM,93.0,28.9,10,29.85,10.0,NW,9.2,-,N/A,,Clear,320,2013-05-03 22:53:00
4:53 PM,93.9,28.0,10,29.83,10.0,NNW,4.6,-,N/A,,Clear,340,2013-05-03 23:53:00
5:53 PM,93.9,26.1,9,29.81,10.0,North,11.5,16.1,N/A,,Clear,350,2013-05-04 00:53:00
6:53 PM,91.9,28.9,11,29.79,10.0,North,8.1,-,N/A,,Clear,360,2013-05-04 01:53:00
7:53 PM,87.1,32.0,14,29.79,10.0,North,6.9,-,N/A,,Clear,350,2013-05-04 02:53:00
8:53 PM,79.0,34.0,20,29.81,10.0,North,6.9,-,N/A,,Clear,360,2013-05-04 03:53:00
9:53 PM,77.0,30.9,19,29.83,10.0,North,6.9,-,N/A,,Clear,10,2013-05-04 04:53:00
10:53 PM,70.0,36.0,29,29.83,10.0,NNE,8.1,-,N/A,,Clear,30,2013-05-04 05:53:00
11:53 PM,75.0,30.9,20,29.84,10.0,North,6.9,-,N/A,,Clear,360,2013-05-04 06:53:00